This is the latest recevied weather packets stored in our database for station/object N6GPM. If no packets are shown the sender has not sent any weather packets the latest 10 day(s).
| Time | Temp. | Humidity | Pressure | Rain* | Wind** | Luminosity | Snow |
|---|---|---|---|---|---|---|---|
| 1788139420 | 86° F | 36% | 761.3 mmHg | 0 in | - | 74 W/m² | - |
| 1788139120 | 86° F | 36% | 761.3 mmHg | 0 in | - | 86 W/m² | - |
| 1788138814 | 87° F | 34% | 761.3 mmHg | 0 in | - | 101 W/m² | - |
| 1788138505 | 87° F | 34% | 761.5 mmHg | 0 in | - | 113 W/m² | - |
| 1788138204 | 87° F | 34% | 761.2 mmHg | 0 in | - | 129 W/m² | - |
| 1788137900 | 87° F | 36% | 761.2 mmHg | 0 in | - | 144 W/m² | - |
| 1788137596 | 87° F | 35% | 761.2 mmHg | 0 in | - | 160 W/m² | - |
| 1788137290 | 88° F | 35% | 761.2 mmHg | 0 in | - | 173 W/m² | - |
| 1788136987 | 89° F | 35% | 761.2 mmHg | 0 in | - | 192 W/m² | - |
| 1788136682 | 88° F | 37% | 761.2 mmHg | 0 in | - | 212 W/m² | - |
| 1788136378 | 88° F | 36% | 761.2 mmHg | 0 in | - | 232 W/m² | - |
| 1788136077 | 88° F | 37% | 761.3 mmHg | 0 in | - | 247 W/m² | - |
| 1788135777 | 89° F | 36% | 761.3 mmHg | 0 in | - | 272 W/m² | - |
| 1788135473 | 88° F | 37% | 761.5 mmHg | 0 in | - | 290 W/m² | - |
| 1788135167 | 88° F | 37% | 761.2 mmHg | 0 in | - | 312 W/m² | - |
| 1788134864 | 89° F | 38% | 761.2 mmHg | 0 in | - | 333 W/m² | - |
| 1788134559 | 89° F | 37% | 761.3 mmHg | 0 in | - | 363 W/m² | - |
| 1788134258 | 89° F | 37% | 761.2 mmHg | 0 in | - | 382 W/m² | - |
| 1788133953 | 89° F | 35% | 761.1 mmHg | 0 in | - | 396 W/m² | - |
| 1788133648 | 90° F | 36% | 761.3 mmHg | 0 in | - | 423 W/m² | - |
| 1788133344 | 89° F | 37% | 761.2 mmHg | 0 in | - | 438 W/m² | - |
| 1788133039 | 90° F | 37% | 761.2 mmHg | 0 in | - | 463 W/m² | - |
| 1788132735 | 90° F | 38% | 761.2 mmHg | 0 in | - | 475 W/m² | - |
| 1788132430 | 90° F | 39% | 761.2 mmHg | 0 in | - | 495 W/m² | - |
| 1788132126 | 90° F | 38% | 761.5 mmHg | 0 in | - | 509 W/m² | - |
* Rain latest hour (hover to see other rain measurements)
** Current wind speed in m/s (hover to see current wind gust speed)